Tel Aviv, Israel

2:34 PM IDT on June 27, 2017 (GMT +0300)
Ben Gurion

Weather History for LLBG - March, 2013

Change the Weather History Date:

Wednesday, March 6, 2013

  Actual Average Record
Temperature  
Mean Temperature 56 °F -  
Max Temperature 64 °F 68 °F 87 °F (2009)
Min Temperature 46 °F 52 °F 44 °F (2012)
Degree Days  
Heating Degree Days 9    
Growing Degree Days 6 (Base 50)    
Moisture  
Dew Point 41 °F    
Average Humidity 57    
Maximum Humidity 88    
Minimum Humidity 28    
Precipitation  
Precipitation 0.00 in - - ()
Sea Level Pressure  
Sea Level Pressure 30.18 in    
Wind  
Wind Speed 6 mph ()    
Max Wind Speed 15 mph    
Max Gust Speed -    
Visibility 6.0 miles    
Events      
Averages and records for this station are not official NWS values.
T = Trace of Precipitation, MM = Missing Value Source: Averaged Metar Reports

Daily Weather History Graph

Daily Weather History Graph

Search for Another Location

Airport or City:

Trip Planner

Search our weather history database for the weather conditions in past years. The results will help you decide how hot, cold, wet, or windy it might be!

Date:

Astronomy

Mar. 06, 2013 Rise Set
Actual Time 6:01 AM IST 5:41 PM IST
Civil Twilight 5:37 AM IST 6:06 PM IST
Nautical Twilight 5:09 AM IST 6:34 PM IST
Astronomical Twilight 4:40 AM IST 7:03 PM IST
Moon 1:36 AM IST (3/6) 12:16 PM IST (3/6)
Length of Visible Light 12h 28m
Length of Day
11h 40m
Waning Crescent, 33% of the Moon is Illuminated
Mar 6
Waning Crescent
Mar 11
New
Mar 19
First Quarter
Mar 27
Full
Apr 3
Last Quarter

Hourly Weather History & Observations

Time (IST) Temp. Dew Point Humidity Pressure Visibility Wind Dir Wind Speed Gust Speed Precip Events Conditions
12:20 AM 57.2 °F 50.0 °F 77% 30.12 in 6.2 mi South 5.8 mph - N/A   Scattered Clouds
12:50 AM 55.4 °F 48.2 °F 77% 30.12 in 6.2 mi South 5.8 mph - N/A   Partly Cloudy
1:20 AM 55.4 °F 48.2 °F 77% 30.12 in 6.2 mi South 4.6 mph - N/A   Partly Cloudy
1:50 AM 55.4 °F 48.2 °F 77% 30.12 in 6.2 mi Variable 3.5 mph - N/A   Scattered Clouds
2:00 AM 55 °F 49 °F 73% 30.12 in 6 mi 3.5 mph - -  
2:20 AM 55.4 °F 48.2 °F 77% 30.12 in 6.2 mi Variable 3.5 mph - N/A   Scattered Clouds
2:50 AM 55.4 °F 48.2 °F 77% 30.12 in 6.2 mi Variable 2.3 mph - N/A   Partly Cloudy
3:20 AM 53.6 °F 48.2 °F 82% 30.12 in 6.2 mi ENE 4.6 mph - N/A   Partly Cloudy
3:50 AM 51.8 °F 48.2 °F 88% 30.12 in - Variable 3.5 mph - N/A   Clear
4:20 AM 51.8 °F 48.2 °F 88% 30.12 in 6.2 mi NE 5.8 mph - N/A   Partly Cloudy
4:40 AM 50.0 °F 46.4 °F 87% 30.18 in 5.0 mi Variable 1.2 mph - N/A   Partly Cloudy
4:50 AM 51.8 °F 48.2 °F 88% 30.15 in - Variable 2.3 mph - N/A   Clear
5:20 AM 51.8 °F 48.2 °F 88% 30.15 in - Variable 3.5 mph - N/A   Clear
5:50 AM 51.8 °F 48.2 °F 88% 30.15 in 6.2 mi Variable 2.3 mph - N/A   Partly Cloudy
6:20 AM 50.0 °F 46.4 °F 87% 30.18 in 5.0 mi Variable 1.2 mph - N/A   Partly Cloudy
6:50 AM 50.0 °F 46.4 °F 87% 30.18 in 5.0 mi Variable 1.2 mph - N/A   Partly Cloudy
7:20 AM 53.6 °F 48.2 °F 82% 30.18 in 5.0 mi Variable 2.3 mph - N/A   Partly Cloudy
7:50 AM 57.2 °F 44.6 °F 63% 30.21 in 5.6 mi Variable 1.2 mph - N/A   Partly Cloudy
8:00 AM 58 °F 46 °F 54% 30.22 in 6 mi 1.2 mph - -  
8:20 AM 59.0 °F 44.6 °F 59% 30.21 in 6.2 mi Variable 2.3 mph - N/A   Partly Cloudy
8:50 AM 59.0 °F 41.0 °F 51% 30.21 in - NNE 6.9 mph - N/A   Clear
9:20 AM 60.8 °F 41.0 °F 48% 30.21 in 6.2 mi NNE 12.7 mph - N/A   Partly Cloudy
9:50 AM 60.8 °F 37.4 °F 42% 30.21 in 6.2 mi North 11.5 mph - N/A   Partly Cloudy
10:20 AM 60.8 °F 32.0 °F 34% 30.21 in 6.2 mi NNW 12.7 mph - N/A   Partly Cloudy
10:50 AM 62.6 °F 33.8 °F 34% 30.21 in 6.2 mi NW 11.5 mph - N/A   Scattered Clouds
11:20 AM 62.6 °F 33.8 °F 34% 30.21 in 6.2 mi NNW 9.2 mph - N/A   Partly Cloudy
11:50 AM 62.6 °F 35.6 °F 37% 30.21 in 6.2 mi NW 12.7 mph - N/A   Partly Cloudy
12:20 PM 62.6 °F 35.6 °F 37% 30.21 in 6.2 mi NW 10.4 mph - N/A   Partly Cloudy
12:50 PM 62.6 °F 35.6 °F 37% 30.21 in 6.2 mi NNW 11.5 mph - N/A   Partly Cloudy
1:20 PM 62.6 °F 35.6 °F 37% 30.18 in 6.2 mi WNW 11.5 mph - N/A   Partly Cloudy
1:50 PM 62.6 °F 39.2 °F 42% 30.18 in 6.2 mi NW 10.4 mph - N/A   Scattered Clouds
2:00 PM 64 °F 39 °F 28% 30.20 in 6 mi WNW 10.4 mph - -  
2:20 PM 62.6 °F 39.2 °F 42% 30.18 in 6.2 mi NNW 13.8 mph - N/A   Partly Cloudy
2:50 PM 62.6 °F 37.4 °F 39% 30.18 in 6.2 mi NNW 15.0 mph - N/A   Partly Cloudy
3:20 PM 62.6 °F 37.4 °F 39% 30.18 in 6.2 mi North 12.7 mph - N/A   Partly Cloudy
3:50 PM 60.8 °F 37.4 °F 42% 30.18 in - NNW 12.7 mph - N/A   Clear
4:20 PM 60.8 °F 37.4 °F 42% 30.18 in - NNW 13.8 mph - N/A   Clear
4:50 PM 60.8 °F 35.6 °F 39% 30.18 in - NNW 15.0 mph - N/A   Clear
5:20 PM 59.0 °F 35.6 °F 42% 30.18 in - NNW 11.5 mph - N/A   Clear
5:50 PM 59.0 °F 35.6 °F 42% 30.18 in - North 12.7 mph - N/A   Clear
6:20 PM 57.2 °F 37.4 °F 48% 30.18 in - North 11.5 mph - N/A   Clear
6:50 PM 57.2 °F 35.6 °F 44% 30.18 in - North 9.2 mph - N/A   Clear
7:50 PM 55.4 °F 32.0 °F 41% 30.21 in - North 8.1 mph - N/A   Clear
8:00 PM 56 °F 32 °F 28% 30.20 in 6 mi North 8.1 mph - -  
8:20 PM 53.6 °F 33.8 °F 47% 30.21 in - NNE 6.9 mph - N/A   Clear
8:50 PM 51.8 °F 33.8 °F 50% 30.24 in - North 8.1 mph - N/A   Clear
9:20 PM 51.8 °F 35.6 °F 54% 30.24 in - North 4.6 mph - N/A   Clear
9:50 PM 51.8 °F 33.8 °F 50% 30.21 in - NNE 4.6 mph - N/A   Clear
10:20 PM 50.0 °F 35.6 °F 58% 30.21 in - East 4.6 mph - N/A   Clear
10:50 PM 50.0 °F 35.6 °F 58% 30.21 in - Variable 3.5 mph - N/A   Clear
11:20 PM 48.2 °F 37.4 °F 66% 30.21 in - South 4.6 mph - N/A   Clear
11:50 PM 46.4 °F 37.4 °F 71% 30.21 in - Variable 2.3 mph - N/A   Clear